Wind_Speed
14 13 13 13 14 14 14 15 14 13 14 15 15 16 16 15 15 15 16 16 16 16 16 16 15 14 15 16 16 17 17 18 19 19 20 20 21 21 21 21 21 21 21
14 14 14 14 14 15 15 15 14 14 14 14 15 15 16 16 15 16 16 16 16 17 16 16 15 15 16 16 16 17 18 19 19 20 20 21 21 21 21 21 22 22 22
13 13 14 15 15 15 16 16 15 14 15 15 15 16 16 16 16 16 17 17 18 17 17 17 16 16 17 17 18 18 18 19 19 19 21 21 21 21 22 22 23 23 23
13 13 14 14 15 16 16 16 16 16 16 16 16 16 16 16 16 16 17 17 17 17 16 16 17 17 17 17 18 18 18 19 19 20 20 21 22 22 22 23 23 23 24
13 13 14 14 14 15 16 16 16 16 17 17 17 17 17 17 16 16 17 17 17 17 17 16 16 16 17 17 18 18 18 19 19 19 19 20 21 22 23 24 24 24 25
13 14 14 14 14 15 15 15 15 16 17 17 18 18 18 18 18 18 18 17 17 17 16 16 16 16 16 16 17 18 18 18 19 20 20 19 20 21 22 23 24 24 25
13 14 14 14 15 15 14 14 15 15 16 17 18 18 18 18 19 18 18 17 18 18 17 17 17 16 16 17 18 18 18 19 19 20 20 20 20 20 21 22 22 23 24
13 13 14 15 15 14 14 14 14 14 15 16 17 17 18 18 18 18 17 17 18 18 18 18 17 17 17 17 18 19 20 20 20 20 21 21 21 21 22 22 23 24 25
14 13 14 14 15 14 14 15 14 14 15 15 16 17 17 18 18 18 18 18 18 19 19 18 17 17 17 17 18 19 19 20 21 21 21 22 22 23 24 24 25 25 25
13 13 14 14 14 14 14 14 14 14 14 14 15 16 17 17 17 17 17 18 19 19 19 19 18 18 18 18 18 19 19 20 21 22 21 22 23 24 24 24 25 26 26
13 14 14 14 14 14 13 13 13 13 14 14 15 16 16 16 17 17 17 18 19 19 20 20 19 19 19 19 19 19 20 21 21 22 23 23 24 24 25 26 26 27 28
13 14 15 14 15 14 13 13 13 13 13 13 14 14 15 16 16 16 16 18 18 19 19 20 20 19 19 20 20 20 21 21 22 23 24 24 25 25 26 27 27 28 28
14 15 15 14 14 13 13 14 13 13 13 13 13 14 14 15 16 16 16 17 18 18 18 19 19 19 20 21 21 22 22 22 23 24 25 25 26 26 27 28 28 29 29
14 14 15 14 14 14 14 13 13 13 13 14 14 15 15 15 16 16 16 16 16 17 17 18 19 20 21 21 22 22 23 23 24 25 26 26 26 27 27 28 28 29 30
14 15 16 15 14 14 13 13 13 14 14 14 15 15 16 16 16 16 16 16 17 17 17 18 18 20 20 20 21 21 22 22 23 24 25 26 26 27 28 28 29 29 30
14 15 15 14 13 13 13 14 14 14 14 15 15 15 15 16 16 15 15 16 17 17 18 18 19 19 20 20 19 20 21 21 22 23 24 24 25 26 27 27 28 29 29
15 14 13 13 13 13 13 13 14 14 15 15 15 15 15 16 15 15 16 16 16 17 18 18 19 19 19 19 19 20 21 21 22 22 23 24 26 26 27 27 28 28 28
14 14 14 14 13 12 12 13 15 15 14 14 15 15 15 16 15 15 15 16 17 17 17 17 18 19 19 20 21 22 22 23 24 24 25 24 25 26 27 28 28 28 28
13 13 13 13 13 13 13 14 14 14 14 14 15 15 16 16 15 15 15 16 16 17 17 17 19 19 20 21 22 23 23 24 25 25 25 25 26 27 27 27 27 27 28
13 13 13 14 13 13 13 13 14 13 13 14 14 14 15 16 15 16 16 16 17 16 17 18 20 20 21 22 23 23 23 24 25 25 25 25 26 26 27 27 27 27 28
13 13 13 13 13 13 13 13 13 13 13 13 14 15 15 15 15 15 16 16 17 17 18 19 21 21 21 22 22 22 23 23 24 24 25 25 26 27 27 27 28 28 28
13 13 13 13 12 12 12 12 12 12 12 13 14 14 15 15 15 15 16 17 18 18 19 20 20 20 21 21 21 22 23 23 23 24 25 25 26 26 26 27 28 28 29
13 13 13 12 12 12 12 11 12 12 12 13 14 14 14 14 15 16 17 18 18 18 19 20 20 20 21 21 22 22 23 23 23 24 25 25 26 26 26 26 27 28 28
12 13 13 13 12 12 12 12 12 13 13 14 14 14 14 15 16 17 17 17 17 18 19 20 20 20 20 22 22 22 23 24 23 24 25 25 24 25 25 26 26 26 27
13 13 13 12 12 12 12 13 13 14 14 14 14 15 15 15 15 16 16 16 17 18 19 19 19 19 20 20 21 22 23 23 23 23 23 24 24 24 25 26 26 26 26
13 13 12 11 11 12 12 13 13 14 14 14 14 14 15 16 16 16 17 17 17 18 19 19 18 19 19 20 21 21 22 22 22 22 23 23 23 24 24 25 25 25 24
Wind_Direction
284 280 275 275 272 269 268 268 267 265 266 266 266 264 264 265 263 263 264 266 268 267 264 263 262 262 260 261 263 263 263 262 262 261 260 258 257 256 257 257 255 255 255
286 283 279 276 272 270 269 270 268 266 267 271 270 267 265 264 266 264 265 267 268 266 261 259 262 263 262 261 263 265 264 263 264 264 263 261 259 257 257 258 257 257 256
288 285 282 278 275 274 274 272 270 266 268 268 269 267 265 264 267 268 267 268 267 263 258 259 261 264 265 265 264 266 267 267 267 265 264 263 261 259 258 258 258 258 257
290 288 286 282 278 275 274 271 268 268 269 266 267 269 267 266 265 267 267 268 266 262 260 262 263 265 267 266 266 265 265 267 268 266 266 264 263 261 261 260 260 260 259
292 291 289 286 283 280 278 273 271 270 269 267 268 269 268 267 266 267 267 266 265 262 264 265 267 269 271 270 266 265 265 267 267 267 270 267 265 264 263 261 261 261 261
291 290 290 289 286 284 280 275 273 272 270 270 269 268 267 267 265 267 268 265 263 264 266 266 269 271 274 274 272 268 267 268 269 269 271 269 267 268 266 263 263 262 262
291 291 291 291 289 286 281 278 276 274 271 270 268 268 267 267 266 267 267 265 265 267 269 270 270 273 273 273 273 272 271 273 273 273 272 270 269 269 269 269 266 264 263
293 294 294 292 290 286 281 278 277 273 272 271 269 267 268 267 267 266 266 267 268 268 271 270 271 275 274 274 274 273 273 275 275 273 272 270 270 270 270 269 269 268 267
298 297 295 293 289 286 281 277 279 279 277 274 272 271 272 272 269 270 270 271 272 270 270 270 271 274 276 276 275 275 274 276 274 272 273 273 272 271 270 269 269 268 268
296 298 298 296 291 287 282 279 279 278 278 277 275 275 276 274 271 271 270 272 274 273 272 271 272 275 277 278 278 276 274 274 272 270 271 273 273 273 272 271 271 269 268
297 299 299 298 293 288 282 280 280 278 279 280 280 279 278 277 277 274 271 271 275 275 274 273 273 277 277 278 279 278 277 276 275 274 274 275 275 274 273 271 271 269 269
299 300 303 301 296 287 281 278 279 278 277 278 280 281 279 279 277 277 274 272 272 274 275 275 276 277 279 280 280 279 278 277 276 276 277 278 278 277 275 273 273 272 271
300 301 302 299 293 287 280 277 275 274 276 280 284 284 283 281 280 280 279 277 275 275 275 276 276 278 281 281 279 280 280 279 279 279 280 281 280 279 278 276 275 274 272
303 303 303 298 291 287 281 278 276 275 278 282 285 286 286 285 283 284 283 280 279 278 278 280 280 282 283 282 281 281 281 281 281 281 282 282 281 280 280 278 277 276 273
302 303 302 297 290 287 282 280 279 280 280 281 283 283 284 286 286 286 285 282 280 278 280 283 283 285 287 286 284 285 285 284 285 284 283 282 282 282 281 279 277 277 275
304 302 299 296 292 289 286 284 282 282 281 281 283 284 284 285 287 286 285 286 283 281 282 284 284 286 289 290 289 288 287 287 288 288 286 284 283 283 282 280 279 278 277
303 302 296 295 294 291 286 284 283 282 282 283 284 284 287 286 287 288 287 287 287 285 284 286 287 288 290 291 291 289 287 287 289 290 290 287 284 283 284 283 282 279 277
306 302 299 299 297 291 286 284 286 284 284 285 287 288 288 288 291 292 291 291 291 289 287 289 291 291 292 292 293 292 289 288 289 289 290 288 286 285 286 285 283 280 277
308 303 302 301 298 293 288 287 289 288 286 286 287 288 289 292 294 293 293 293 294 292 290 291 295 294 294 293 292 292 291 290 291 292 291 290 288 288 287 285 283 280 277
309 305 303 302 301 298 293 291 292 290 288 288 288 289 291 293 293 294 295 296 295 292 292 293 295 297 297 297 295 293 293 291 291 292 292 290 290 290 289 286 284 281 278
309 306 305 306 305 303 299 295 294 292 290 290 289 291 292 292 293 295 297 298 297 297 297 297 296 298 299 299 298 296 295 294 293 293 294 293 292 291 289 287 285 283 281
311 309 308 308 308 305 303 300 299 299 296 293 292 291 291 292 293 297 299 299 298 297 299 302 302 301 301 302 301 301 301 299 297 296 295 294 294 294 293 292 289 286 284
309 307 308 309 308 306 304 304 304 303 300 298 296 294 292 293 295 297 298 297 298 299 301 304 304 304 304 303 302 303 302 302 302 300 298 297 296 295 294 294 292 289 286
310 309 309 309 308 307 306 305 306 307 305 304 301 300 298 297 297 298 299 299 301 301 302 303 304 306 305 305 303 304 305 304 303 302 302 300 298 296 297 298 295 292 289
312 307 307 307 307 305 305 304 304 307 308 307 305 303 300 299 299 299 300 301 303 303 304 304 304 304 305 306 307 308 308 306 305 304 305 304 303 300 300 300 298 296 293
311 308 306 306 306 306 306 307 308 308 307 307 307 307 307 305 302 300 301 302 304 304 304 305 305 305 307 308 309 309 310 309 308 307 308 308 307 305 303 303 301 298 296
Height
5838 5839 5838 5839 5839 5840 5840 5841 5842 5842 5842 5842 5843 5844 5844 5845 5846 5846 5847 5847 5847 5848 5848 5849 5849 5849 5850 5851 5851 5852 5853 5854 5854 5855 5856 5857 5858 5859 5860 5861 5862 5863 5864
5835 5835 5835 5835 5836 5837 5837 5837 5838 5838 5839 5839 5839 5840 5841 5841 5842 5843 5843 5843 5844 5844 5845 5845 5845 5846 5847 5847 5848 5848 5849 5850 5850 5851 5852 5852 5853 5854 5856 5857 5857 5858 5860
5832 5832 5832 5832 5833 5833 5833 5834 5834 5834 5835 5835 5836 5836 5837 5838 5839 5839 5839 5840 5840 5840 5841 5841 5842 5842 5842 5843 5843 5844 5845 5845 5846 5847 5847 5848 5849 5850 5851 5852 5853 5854 5855
5830 5829 5829 5829 5829 5830 5830 5830 5830 5831 5831 5832 5832 5833 5833 5834 5834 5835 5835 5836 5836 5837 5837 5838 5838 5838 5838 5839 5839 5840 5840 5841 5841 5842 5842 5843 5843 5844 5846 5846 5847 5848 5849
5827 5827 5826 5826 5826 5826 5826 5826 5827 5827 5827 5828 5828 5829 5829 5830 5830 5831 5831 5831 5832 5833 5833 5834 5834 5834 5834 5834 5834 5835 5836 5836 5836 5837 5837 5838 5838 5839 5840 5841 5841 5842 5843
5824 5824 5823 5823 5823 5823 5822 5822 5823 5823 5823 5823 5824 5825 5825 5826 5826 5827 5827 5827 5828 5829 5829 5830 5830 5830 5830 5830 5830 5831 5831 5831 5832 5832 5832 5832 5833 5833 5834 5835 5835 5836 5837
5821 5821 5821 5820 5820 5820 5819 5819 5819 5819 5819 5819 5820 5820 5821 5821 5822 5822 5823 5823 5824 5825 5825 5825 5826 5826 5825 5825 5825 5826 5826 5826 5827 5827 5827 5827 5828 5828 5828 5829 5829 5830 5831
5818 5818 5817 5817 5816 5816 5816 5815 5815 5815 5816 5816 5816 5816 5817 5818 5818 5818 5819 5819 5819 5820 5820 5820 5821 5821 5821 5821 5821 5821 5821 5821 5821 5822 5822 5822 5822 5822 5823 5823 5824 5824 5824
5816 5815 5814 5814 5813 5812 5812 5812 5811 5811 5811 5812 5812 5812 5812 5813 5814 5814 5814 5815 5815 5815 5816 5815 5816 5816 5816 5816 5816 5816 5816 5816 5816 5816 5816 5816 5816 5816 5817 5817 5817 5817 5817
5813 5812 5811 5810 5809 5809 5808 5808 5808 5808 5808 5808 5808 5808 5809 5809 5809 5810 5810 5810 5810 5810 5811 5811 5811 5811 5811 5811 5811 5810 5810 5810 5810 5810 5810 5810 5810 5810 5810 5810 5810 5810 5810
5810 5809 5807 5806 5805 5805 5804 5804 5804 5804 5804 5804 5804 5804 5804 5804 5804 5805 5805 5805 5805 5805 5806 5806 5806 5806 5806 5805 5805 5805 5805 5804 5804 5804 5804 5803 5803 5803 5803 5802 5802 5802 5802
5806 5805 5804 5803 5802 5801 5801 5801 5801 5801 5801 5801 5801 5800 5801 5800 5800 5800 5800 5800 5801 5801 5800 5800 5800 5800 5800 5800 5800 5799 5799 5798 5798 5797 5797 5796 5796 5795 5795 5794 5794 5794 5794
5803 5802 5800 5799 5799 5798 5797 5797 5797 5797 5797 5797 5796 5796 5796 5796 5796 5795 5795 5795 5795 5795 5795 5795 5794 5794 5794 5793 5793 5792 5792 5791 5791 5790 5790 5789 5788 5787 5787 5786 5786 5785 5785
5800 5799 5797 5796 5795 5794 5794 5793 5793 5793 5793 5793 5792 5792 5792 5791 5791 5790 5790 5790 5790 5790 5790 5789 5789 5788 5787 5787 5787 5786 5785 5784 5784 5783 5782 5781 5780 5779 5778 5778 5777 5776 5776
5796 5795 5793 5792 5791 5791 5790 5789 5789 5789 5789 5789 5788 5788 5787 5787 5786 5786 5785 5785 5785 5785 5785 5784 5783 5782 5781 5781 5780 5779 5778 5777 5776 5775 5774 5773 5772 5771 5770 5769 5768 5767 5766
5793 5791 5790 5788 5787 5787 5786 5786 5785 5785 5785 5785 5784 5783 5783 5782 5782 5781 5781 5780 5779 5779 5779 5778 5777 5777 5775 5775 5774 5773 5772 5770 5769 5767 5766 5765 5764 5763 5761 5760 5759 5758 5757
5789 5788 5786 5785 5784 5783 5782 5782 5781 5781 5781 5780 5780 5779 5779 5778 5777 5777 5776 5775 5774 5774 5773 5773 5772 5770 5769 5769 5768 5766 5765 5764 5762 5760 5759 5757 5756 5755 5753 5752 5750 5749 5748
5786 5785 5783 5782 5781 5780 5779 5778 5778 5777 5777 5776 5775 5775 5774 5773 5773 5772 5771 5770 5769 5769 5768 5767 5766 5765 5764 5763 5761 5760 5759 5757 5756 5754 5752 5750 5748 5746 5744 5743 5741 5740 5739
5783 5782 5780 5779 5778 5777 5776 5775 5774 5773 5772 5772 5771 5771 5770 5769 5768 5768 5766 5766 5765 5764 5763 5762 5761 5759 5758 5757 5755 5753 5752 5750 5748 5746 5744 5742 5740 5738 5736 5734 5733 5732 5731
5780 5779 5777 5776 5775 5773 5772 5771 5770 5769 5769 5768 5767 5766 5766 5765 5764 5763 5762 5761 5760 5759 5758 5757 5756 5754 5752 5750 5748 5747 5745 5743 5741 5739 5737 5735 5733 5730 5728 5726 5725 5723 5722
5778 5776 5775 5773 5772 5770 5769 5768 5767 5766 5765 5764 5763 5762 5762 5761 5760 5759 5758 5757 5755 5754 5753 5751 5750 5748 5746 5744 5742 5740 5738 5736 5734 5731 5729 5727 5725 5723 5720 5718 5716 5714 5712
5775 5774 5772 5771 5769 5768 5766 5765 5763 5762 5761 5760 5759 5758 5758 5757 5756 5755 5753 5752 5751 5749 5748 5746 5744 5742 5740 5738 5735 5733 5731 5729 5727 5725 5722 5720 5717 5714 5712 5710 5707 5705 5703
5772 5771 5769 5768 5766 5765 5764 5762 5761 5759 5758 5757 5756 5755 5754 5753 5752 5750 5749 5748 5746 5744 5743 5741 5739 5737 5734 5732 5730 5727 5724 5722 5719 5716 5714 5712 5709 5707 5704 5701 5699 5696 5694
5770 5768 5766 5765 5763 5762 5761 5759 5758 5756 5755 5754 5752 5751 5750 5748 5747 5746 5745 5743 5741 5740 5738 5735 5733 5731 5728 5726 5723 5721 5718 5715 5713 5710 5707 5704 5702 5699 5696 5693 5690 5687 5685
5767 5765 5764 5762 5761 5759 5758 5756 5755 5753 5752 5750 5749 5747 5746 5745 5743 5741 5740 5738 5737 5735 5732 5731 5728 5726 5723 5720 5718 5715 5712 5710 5707 5704 5700 5697 5694 5691 5689 5685 5682 5679 5677
5764 5763 5761 5759 5758 5756 5755 5753 5751 5750 5749 5747 5745 5744 5742 5740 5739 5737 5735 5733 5732 5730 5727 5725 5723 5721 5718 5716 5713 5710 5706 5703 5700 5697 5694 5690 5687 5684 5682 5678 5674 5671 5668